Weather Roundup
Issued by NWS

Home | Current Version | Previous Version | Text Only | Print | Product List | Glossary On
Versions: 1 2 3 4 5 6 7 8 9 10 11 12 13 14 15 16 17 18 19 20 21 22 23 24 25 26 27 28 29 30 31 32 33 34 35 36 37 38 39 40 41 42 43 44 45 46 47 48 49 50
000
NZUS93 KARX 220910
HRRWXR

CURRENT HOURLY OBSERVATIONS ACROSS
MUCH OF THE UPPER MISSISSIPPI VALLEY
NATIONAL WEATHER SERVICE LA CROSSE WI
300 AM CST THU FEB 22 2018


...SOUTHEAST MINNESOTA...


CITY           SKY/WX    TMP DP  RH WIND       PRES   REMARKS
ROCHESTER      MOCLDY    15  11  83 E6        30.54F WCI   6
ROCHESTER/MAYO FAIR      17  10  75 CALM      30.56S
WINONA         MOCLDY    14  12  92 CALM      30.59F
AUSTIN         FAIR      19  14  79 MISG      30.54S
ALBERT LEA     CLOUDY    18  12  79 CALM      30.52F
DODGE CENTER   FAIR      10   7  85 CALM      30.54S
PRESTON        CLOUDY    17  12  79 E5        30.56R WCI  10
OWATONNA       FAIR      10   5  79 CALM      30.55S
FARIBAULT      CLOUDY     3   0  85 CALM      30.57S
$$

...ELSEWHERE IN MINNESOTA...


CITY           SKY/WX    TMP DP  RH WIND       PRES   REMARKS
MINNEAPOLIS    MOCLDY     8   5  87 CALM      30.60F
INTNL FALLS    FAIR     -15 -17  91 CALM      30.54F
DULUTH         FAIR      -1  -8  72 CALM      30.55F
RED WING       FAIR       5   0  78 CALM      30.60F
REDWOOD FALLS  FAIR       4   2  91 CALM      30.55F
MANKATO        FAIR       9   5  84 NE7       30.56F WCI  -2
WORTHINGTON    FAIR      12   8  84 E3        30.50F
FAIRMONT       FAIR      13   9  84 E6        30.53F WCI   4
$$

...SOUTHWEST WISCONSIN...


CITY           SKY/WX    TMP DP  RH WIND       PRES   REMARKS
LA CROSSE      CLOUDY    19  15  84 CALM      30.61F
PRAIRIE DU CHI CLOUDY    24  14  65 E5        30.60R WCI  18
BOSCOBEL       CLOUDY    24  15  68 E5        30.61R WCI  18
LONE ROCK      CLOUDY    24  15  68 E8        30.61S WCI  15
PLATTEVILLE    MOCLDY    24  16  71 NE9       30.56S WCI  14
FORT MC COY    CLOUDY    18  15  88 CALM      30.60F
CAMP DOUGLAS   MOCLDY    17  13  81 E3        30.58F
MAUSTON-NEW LI PTSUNNY   19  14  81 CALM      30.58F
VIROQUA        PTSUNNY   20  17  91 E6        30.55S WCI  12
WIS DELLS      CLOUDY    20  14  76 E6        30.59F WCI  12
$$

...ELSEWHERE IN WISCONSIN...


CITY           SKY/WX    TMP DP  RH WIND       PRES   REMARKS
MILWAUKEE      CLOUDY    29  21  72 NE8       30.59F WCI  21
MADISON        CLOUDY    22  14  71 E9        30.59F WCI  12
GREEN BAY      FAIR      19  10  68 NE5       30.63F WCI  12
EAU CLAIRE     FAIR       2  -1  88 NE5       30.60F WCI  -8
BLACK RVR FLS  CLOUDY    12   8  82 CALM      30.59F
MEDFORD        FAIR       0  -4  83 NE3       30.55F
WAUSAU         FAIR       7   3  84 CALM      30.56F
WIS RAPIDS     FAIR      14   6  70 NE3       30.59F
MARSHFIELD     FAIR      11   3  70 NE6       30.55F WCI   1
RICE LAKE      FAIR      -2  -5  86 N5        30.61F WCI -12
$$

...NORTHEAST IOWA...


CITY           SKY/WX    TMP DP  RH WIND       PRES   REMARKS
WATERLOO       CLOUDY    23  16  74 NE7       30.55F WCI  15
DUBUQUE        MOCLDY    23  13  65 NE13      30.53F WCI  11
DECORAH        CLOUDY    21  16  79 E7        30.56R WCI  13
MASON CITY     FLURRIES  21  15  78 E7        30.55F WCI  12
CHARLES CITY   LGT SNOW  23  18  80 E7        30.56S WCI  15
OELWEIN        CLOUDY    23  19  86 NE8G15    30.55F WCI  14
$$

...ELSEWHERE IN IOWA...


CITY           SKY/WX    TMP DP  RH WIND       PRES   REMARKS
DES MOINES     CLOUDY    25  16  68 E6        30.52S WCI  18
IOWA CITY      CLOUDY    28  17  63 NE8       30.54F WCI  20
FORT DODGE     LGT SNOW  20  18  92 E7        30.52F FOG     WCI  11
MARSHALLTOWN   CLOUDY    24  17  74 NE9       30.53S WCI  14
CEDAR RAPIDS   CLOUDY    26  15  63 NE10      30.51F WCI  16
$$

...NORTHERN ILLINOIS...


CITY           SKY/WX    TMP DP  RH WIND       PRES   REMARKS
CHICAGO-OHARE  CLOUDY    31  23  72 NE13      30.54F WCI  21
CHICAGO-MIDWAY CLOUDY    32  26  78 NE13      30.53F WCI  22
MOLINE         FAIR      28  19  69 NE10      30.51F WCI  19
ROCKFORD       CLOUDY    26  18  71 NE9       30.56F WCI  17
PEORIA         CLOUDY    29  24  82 NE13      30.47F WCI  19
$$

NOTE: "FAIR" INDICATES FEW OR NO CLOUDS BELOW 12,000 FEET WITH NO
SIGNIFICANT WEATHER AND/OR OBSTRUCTIONS TO VISIBILITY. WIND
SPEEDS ARE IN MILES-PER-HOUR.




USA.gov is the U.S. government's official web portal to all federal, state and local government web resources and services.